SCP
-0 0 0 0 0 0 0 0 0 0 0 0 0 0 0 0 0 0 0 0 0 0
-0 -0 0 0 0 0 0 0 0 0 0 0 0 0 0 0 0 0 0 0 0 0
-0 -0 -0 0 0 0 0 0 0 0 0 0 0 0 0 0 0 0 0 0 0 0
-0 -0 -0 -0 -0 -0 0 0 0 0 0 0 0 0 0 0 0 0 0 0 0 0
-0 -0 -0 -0 0 -0 0 0 0 0 0 0 0 0 0 0 0 0 0 0 0 0
-0 -0 -0 0 0 0 0 0 0 0 0 0 0 0 0 0 0 0 0 0 0 0
0 0 -0 0 0 0 0 0 0 0 0 0 0 0 0 0 0 0 0 0 0 0
0 0 0 0 0 0 0 0 0 0 0 0 0 0 0 0 0 0 0 0 0 0
0 0 0 0 0 0 0 0 0 0 0 0 0 0 0 0 0 0 0 0 0 0
0 0 0 0 0 0 0 0 0 0 0 0 0 0 0 0 0 0 0 0 0 0
0 0 0 0 0 0 0 0 0 0 0 0 0 0 0 0 0 0 0 0 0 0
0 0 0 0 0 0 0 0 0 0 0 0 0 0 0 0 0 0 0 0 0 0
0 0 0 0 0 0 0 0 0 0 0 0 0 0 0 0 0 0 0 0 0 0
0 0 0 0 0 0 0 0 0 0 0 0 0 0 0 0 0 0 0 0 0 0
Wind_Speed_500mb
80 97 91 76 61 37 36 46 50 52 54 51 53 51 49 50 53 54 55 54 52 60
65 70 90 91 82 55 33 32 54 53 54 55 59 61 59 60 61 56 56 63 59 55
63 60 62 71 85 75 36 35 42 57 59 57 53 56 55 62 62 61 63 64 64 62
75 65 63 62 62 79 52 37 38 56 61 64 62 63 61 65 66 68 67 67 70 67
74 74 69 69 59 70 68 38 39 53 66 69 71 69 70 71 70 73 75 72 72 74
80 72 74 67 71 54 65 61 38 47 56 66 62 67 67 67 76 77 76 75 78 79
80 75 74 70 73 56 57 59 43 50 54 57 51 57 62 66 64 70 74 77 78 80
79 76 74 71 71 63 46 56 55 53 58 54 54 55 60 60 66 77 73 81 81 82
77 75 73 70 70 70 44 49 63 49 48 50 50 52 55 56 63 67 76 79 75 77
75 72 70 70 70 64 47 49 49 45 45 50 47 48 50 56 62 67 75 73 73 73
71 71 69 71 69 64 54 54 49 41 42 45 50 47 49 50 61 66 62 59 65 71
71 72 70 69 69 64 58 54 43 43 45 49 46 42 46 50 47 49 53 62 68 74
70 69 69 68 70 63 52 42 36 41 42 44 44 40 44 42 46 52 55 59 67 69
67 64 64 69 65 54 41 35 35 34 31 32 39 42 44 43 44 45 51 51 48 48
Wind_Direction_500mb
307 306 305 314 299 265 258 259 252 249 244 244 242 244 252 255 249 247 250 251 255 256
313 302 298 298 302 287 245 256 251 249 245 241 243 245 246 249 254 258 257 255 253 257
318 302 295 288 298 290 257 238 264 247 243 241 243 246 248 249 253 253 256 258 261 254
317 315 298 291 290 290 282 234 254 250 245 243 241 244 246 248 251 254 255 258 258 256
309 310 309 299 293 293 286 261 248 259 247 250 243 245 246 249 250 252 253 251 253 257
309 310 306 303 295 287 280 280 244 253 251 256 250 246 246 249 250 251 254 255 254 256
308 308 307 303 298 292 277 279 258 246 244 252 251 247 245 244 252 252 252 253 252 255
307 306 304 302 302 295 283 277 269 251 239 253 245 244 247 248 247 249 255 258 251 257
308 306 303 301 301 292 282 271 269 245 247 255 251 250 249 250 253 256 253 254 257 255
307 304 301 300 300 295 285 279 271 249 256 260 256 255 251 246 251 252 253 249 250 252
307 302 300 299 300 293 290 283 267 253 261 266 259 251 251 252 243 239 242 247 250 252
307 301 298 298 298 293 293 281 263 261 258 257 251 249 245 231 234 243 251 256 260 261
306 299 297 297 295 294 290 280 264 262 266 254 249 242 227 241 243 253 262 267 270 266
302 296 294 296 295 297 291 275 263 271 262 255 236 225 239 241 251 260 267 270 270 263
Wind_Speed_850mb
80 97 91 76 61 37 36 46 50 52 54 51 53 51 49 50 53 54 55 54 52 60
65 70 90 91 82 55 33 32 54 53 54 55 59 61 59 60 61 56 56 63 59 55
63 60 62 71 85 75 36 35 42 57 59 57 53 56 55 62 62 61 63 64 64 62
75 65 63 62 62 79 52 37 38 56 61 64 62 63 61 65 66 68 67 67 70 67
74 74 69 69 59 70 68 38 39 53 66 69 71 69 70 71 70 73 75 72 72 74
80 72 74 67 71 54 65 61 38 47 56 66 62 67 67 67 76 77 76 75 78 79
80 75 74 70 73 56 57 59 43 50 54 57 51 57 62 66 64 70 74 77 78 80
79 76 74 71 71 63 46 56 55 53 58 54 54 55 60 60 66 77 73 81 81 82
77 75 73 70 70 70 44 49 63 49 48 50 50 52 55 56 63 67 76 79 75 77
75 72 70 70 70 64 47 49 49 45 45 50 47 48 50 56 62 67 75 73 73 73
71 71 69 71 69 64 54 54 49 41 42 45 50 47 49 50 61 66 62 59 65 71
71 72 70 69 69 64 58 54 43 43 45 49 46 42 46 50 47 49 53 62 68 74
70 69 69 68 70 63 52 42 36 41 42 44 44 40 44 42 46 52 55 59 67 69
67 64 64 69 65 54 41 35 35 34 31 32 39 42 44 43 44 45 51 51 48 48
Wind_Direction_850mb
307 306 305 314 299 265 258 259 252 249 244 244 242 244 252 255 249 247 250 251 255 256
313 302 298 298 302 287 245 256 251 249 245 241 243 245 246 249 254 258 257 255 253 257
318 302 295 288 298 290 257 238 264 247 243 241 243 246 248 249 253 253 256 258 261 254
317 315 298 291 290 290 282 234 254 250 245 243 241 244 246 248 251 254 255 258 258 256
309 310 309 299 293 293 286 261 248 259 247 250 243 245 246 249 250 252 253 251 253 257
309 310 306 303 295 287 280 280 244 253 251 256 250 246 246 249 250 251 254 255 254 256
308 308 307 303 298 292 277 279 258 246 244 252 251 247 245 244 252 252 252 253 252 255
307 306 304 302 302 295 283 277 269 251 239 253 245 244 247 248 247 249 255 258 251 257
308 306 303 301 301 292 282 271 269 245 247 255 251 250 249 250 253 256 253 254 257 255
307 304 301 300 300 295 285 279 271 249 256 260 256 255 251 246 251 252 253 249 250 252
307 302 300 299 300 293 290 283 267 253 261 266 259 251 251 252 243 239 242 247 250 252
307 301 298 298 298 293 293 281 263 261 258 257 251 249 245 231 234 243 251 256 260 261
306 299 297 297 295 294 290 280 264 262 266 254 249 242 227 241 243 253 262 267 270 266
302 296 294 296 295 297 291 275 263 271 262 255 236 225 239 241 251 260 267 270 270 263